Flag for U.S.A. Weather past 2 weeks in Breckenridge, Colorado, U.S.A.

Now
52 °F

Clear.


Feels Like: 49 °F
Forecast: 47 / 78 °F
Wind: 8 mph from Southwest

Location: Copper Mountain - Red Cliff Pass

Current Time: Aug 5, 2015 at 2:51:48 AM

Latest Report: Aug 5, 2015 at 2:14 AM


Visibility: 10 mi

Pressure: 30.67 "Hg (21.58 "Hg at 2921m altitude)

Humidity: 50%

Dew point: 34 °F

Location of BreckenridgeLocation

Historic Weather in Breckenridge — Graph

°F

Breckenridge temperature yesterday

Maximum temperature yesterday: 61 °F (at 2:54 PM)
Minimum temperature yesterday: 46 °F (at 12:34 AM)
Average temperature yesterday: 53 °F

Past Weeks' High & Low Weather Summary

 TemperatureHumidityPressure
High70 °F (Aug 2, 11:34 AM)87% (Jul 21, 12:54 PM)30.84 "Hg (Jul 21, 12:54 PM)
Low45 °F (Jul 21, 12:14 PM)14% (Jul 28, 5:34 PM)30.46 "Hg (Jul 21, 5:54 PM)
Average55 °F44%30.63 "Hg
* Reported Jul 21 1:14 AM — Aug 5 1:54 AM, Breckenridge, Weather by CustomWeather, © 2015

Note: Actual official high and low records may vary slightly from our data, if they occured in-between our weather recording intervals... More about our weather records

Advertising

Breckenridge weather history for previous 24 hours

 ConditionsComfort  
Time TempWeatherWind HumidityBarometerVisibility
1:54 AM
Wed, Aug 5
52 °FClear.9 mph50%30.67 "Hg10 mi
1:34 AM50 °FClear.9 mph50%30.67 "Hg10 mi
1:14 AM52 °FClear.8 mph47%30.68 "Hg10 mi
12:54 AM52 °FClear.12 mph47%30.67 "Hg10 mi
12:34 AM50 °FClear.14 mph50%30.67 "Hg10 mi
12:14 AM52 °FClear.10 mph47%30.68 "Hg10 mi
11:54 PM
Tue, Aug 4
52 °FClear.8 mph47%30.67 "Hg10 mi
11:34 PM50 °FClear.7 mph50%30.67 "Hg10 mi
11:14 PM52 °FClear.9 mph47%30.68 "Hg10 mi
10:34 PM52 °FClear.7 mph50%30.68 "Hg10 mi
9:54 PM54 °FClear.15 mph47%30.68 "Hg10 mi
9:14 PM54 °FClear.9 mph47%30.68 "Hg10 mi
8:54 PM54 °FSunny.10 mph47%30.67 "Hg10 mi
8:34 PM54 °FSunny.16 mph44%30.66 "Hg10 mi
8:14 PM54 °FSunny.18 mph44%30.65 "Hg10 mi
7:54 PM55 °FSunny.16 mph41%30.65 "Hg10 mi
7:34 PM57 °FSunny.22 mph39%30.64 "Hg10 mi
7:14 PM59 °FScattered clouds.21 mph36%30.64 "Hg10 mi
6:54 PM59 °FBroken clouds.20 mph36%30.64 "Hg10 mi
6:34 PM59 °FBroken clouds.29 mph36%30.63 "Hg10 mi
6:14 PM59 °FScattered clouds.24 mph34%30.63 "Hg10 mi
5:54 PM59 °FBroken clouds.21 mph34%30.64 "Hg10 mi
5:34 PM59 °FScattered clouds.31 mph36%30.62 "Hg10 mi
5:14 PM59 °FPartly sunny.20 mph34%30.64 "Hg10 mi
4:54 PM59 °FBroken clouds.23 mph34%30.64 "Hg10 mi
4:34 PM59 °FScattered clouds.23 mph34%30.62 "Hg10 mi
4:14 PM59 °FBroken clouds.22 mph36%30.62 "Hg10 mi
3:54 PM55 °FMostly cloudy.29 mph41%30.62 "Hg10 mi
3:34 PM57 °FBroken clouds.29 mph39%30.61 "Hg10 mi
2:54 PM61 °FScattered clouds.37 mph31%30.60 "Hg10 mi
2:34 PM59 °FScattered clouds.30 mph34%30.61 "Hg10 mi
2:14 PM59 °FScattered clouds.37 mph34%30.59 "Hg10 mi
1:54 PM59 °FSunny.31 mph34%30.60 "Hg10 mi
1:34 PM59 °FSunny.40 mph31%30.58 "Hg10 mi
1:14 PM59 °FSunny.22 mph34%30.61 "Hg10 mi
12:54 PM57 °FScattered clouds.37 mph33%30.59 "Hg10 mi
12:34 PM55 °FScattered clouds.33 mph38%30.60 "Hg10 mi
12:14 PM55 °FScattered clouds.21 mph41%30.61 "Hg10 mi
11:54 AM55 °FScattered clouds.37 mph36%30.59 "Hg10 mi
11:34 AM55 °FScattered clouds.28 mph41%30.59 "Hg10 mi
11:14 AM54 °FScattered clouds.37 mph44%30.57 "Hg10 mi
10:54 AM55 °FScattered clouds.28 mph41%30.58 "Hg10 mi
10:34 AM54 °FScattered clouds.28 mph44%30.57 "Hg10 mi
10:14 AM54 °FScattered clouds.23 mph44%30.56 "Hg10 mi
9:54 AM54 °FSunny.32 mph47%30.55 "Hg10 mi
9:34 AM54 °FSunny.33 mph47%30.54 "Hg10 mi
9:14 AM52 °FSunny.29 mph50%30.55 "Hg10 mi
8:54 AM52 °FSunny.26 mph50%30.55 "Hg10 mi
8:34 AM52 °FSunny.21 mph50%30.54 "Hg10 mi
8:14 AM50 °FSunny.24 mph50%30.54 "Hg10 mi
7:54 AM46 °FSunny.24 mph57%30.54 "Hg10 mi
7:34 AM46 °FScattered clouds.17 mph57%30.54 "Hg10 mi
7:14 AM46 °FOvercast.9 mph57%30.55 "Hg10 mi
6:54 AM46 °FPassing clouds.12 mph57%30.54 "Hg10 mi
6:34 AM46 °FPassing clouds.15 mph57%30.54 "Hg10 mi
6:14 AM46 °FClear.21 mph57%30.53 "Hg10 mi
5:54 AM46 °FClear.14 mph57%30.53 "Hg10 mi
5:34 AM46 °FClear.12 mph57%30.53 "Hg10 mi
5:14 AM46 °FClear.18 mph57%30.52 "Hg10 mi
4:54 AM46 °FClear.23 mph53%30.51 "Hg10 mi
4:34 AM46 °FClear.21 mph53%30.51 "Hg10 mi
4:14 AM46 °FClear.15 mph57%30.52 "Hg10 mi
3:54 AM48 °FClear.14 mph54%30.54 "Hg10 mi
3:34 AM46 °FClear.21 mph57%30.54 "Hg10 mi
3:14 AM46 °FClear.20 mph57%30.54 "Hg10 mi
2:54 AM46 °FClear.20 mph57%30.54 "Hg10 mi
2:34 AM46 °FClear.21 mph53%30.54 "Hg10 mi
2:14 AM48 °FThundershowers. Clear.22 mph50%30.55 "Hg10 mi
Weather by CustomWeather, © 2015

See weather overviewHow to use our weather pages